User: anonymous   Login
Location: Unspecified
(0.0000°N, 0.0000°E)
Time: 00:39:44
(UTC+00:00)
Language:

ESSA 9 - Orbit

View from above orbital plane
View from above orbital plane
View from above satellite
View from above satellite

Ground track
Ground track

The orbit data is extracted from the following two-line orbital elements,

1  3764U 69016A   18265.14255536 -.00000047 +00000-0 -17186-4 0  9995
2  3764 101.7264 323.7490 0051044 176.9699 208.0097 12.49835464634894
Epoch (UTC): 22 September 2018 03:25:16
Eccentricity: 0.0051044
inclination: 101.7264°
perigee height: 1425 km
apogee height: 1505 km
right ascension of ascending node: 323.7490°
argument of perigee: 176.9699°
revolutions per day: 12.49835464
mean anomaly at epoch: 208.0097°
orbit number at epoch: 63489

The dashed part of the orbit path shows where the satellite is in the earth's shadow,  

DLR